Volver al catálogo

HULIANWANG DIGUI-09

ActivoComunicacionesPO
NORAD 62331·PAYLOAD·🇨🇳 China

Lanzado Dec 16, 2024 desde Wenchang Space Launch Site

Loading…

Próximos Pases (próximas 24 horas)

TLE

ActualizadoSource: Space-Track

Época: Sep 14, 2026, 22:09 UTC

1 62331U 24240J   26257.92337700  .00000032  00000-0  39482-4 0  9995
2 62331  86.4995 313.0056 0001737  90.8427 269.2906 13.24412592 84519

Sigue HULIANWANG DIGUI-09 en tiempo real con AllMySat

Download on the App Store